Retour au catalogue

GEESAT 1-07

ActifCommunicationsLEO
NORAD 52791·PAYLOAD·🇨🇳 China

Lancé Jun 2, 2022 depuis Xichang Satellite Launch Center

Loading…

Prochains Passages (prochaines 24 heures)

TLE

FraisSource: Space-Track

Époque: Sep 14, 2026, 20:49 UTC

1 52791U 22058G   26257.86739888  .00001272  00000-0  18825-3 0  9999
2 52791  49.9882 147.2129 0012571  77.4033 282.8309 14.81599377233220

Suivez GEESAT 1-07 en temps réel avec AllMySat

Download on the App Store